AAR284 RKSI-KLAX

Flight info

Callsign AAR284
Flight time N/A
Altitude 31000
Route EGOBA2E EGOBA Y697 KAE Y437 TENAS L512 GTC Y512 ADNAP DCT EMRON DCT 41N160E 42N170E 43N180E 44N170W 45N160W 45N150W 43N140W 39N130W DCT DACEM DCT PAINT DCT PIRAT DCT BURGL BAYST1
Aircraft B744/H-SDE1E2E3FGHIJ3J5M1P1RWXYZ/LB1D1

Departure

Time 2026-05-01 11:26
Airport Incheon International Airport (RKSI)

Arrival

Time N/A
Airport Los Angeles International Airport (KLAX)
Time Latitude Longitude Altitude Speed Heading
2026-05-01 11:02 37.46575 126.46263 36 ft 0 kts 324°
2026-05-01 11:14 37.46567 126.46270 36 ft 3 kts 325°
2026-05-01 11:14 37.46550 126.46284 36 ft 3 kts 323°
2026-05-01 11:15 37.46535 126.46299 36 ft 3 kts 307°
2026-05-01 11:15 37.46527 126.46316 36 ft 2 kts 288°
2026-05-01 11:15 37.46523 126.46335 36 ft 3 kts 261°
2026-05-01 11:15 37.46528 126.46354 36 ft 3 kts 234°
2026-05-01 11:16 37.46537 126.46371 36 ft 1 kts 234°
2026-05-01 11:16 37.46538 126.46372 36 ft 0 kts 234°
2026-05-01 11:19 37.46537 126.46370 36 ft 2 kts 234°
2026-05-01 11:19 37.46513 126.46327 36 ft 7 kts 234°
2026-05-01 11:20 37.46477 126.46264 36 ft 12 kts 234°
2026-05-01 11:20 37.46439 126.46170 36 ft 12 kts 245°
2026-05-01 11:20 37.46375 126.46122 36 ft 11 kts 163°
2026-05-01 11:20 37.46313 126.46181 36 ft 11 kts 142°
2026-05-01 11:21 37.46250 126.46230 36 ft 11 kts 176°
2026-05-01 11:21 37.46191 126.46162 36 ft 15 kts 235°
2026-05-01 11:21 37.46132 126.46056 36 ft 14 kts 235°
2026-05-01 11:21 37.46078 126.45957 36 ft 13 kts 235°
2026-05-01 11:22 37.46011 126.45891 36 ft 13 kts 175°
2026-05-01 11:22 37.45915 126.45960 36 ft 16 kts 144°
2026-05-01 11:22 37.45819 126.46048 36 ft 18 kts 144°
2026-05-01 11:22 37.45710 126.46145 36 ft 19 kts 145°
2026-05-01 11:23 37.45605 126.46237 36 ft 18 kts 145°
2026-05-01 11:23 37.45505 126.46218 36 ft 17 kts 235°
2026-05-01 11:23 37.45445 126.46110 36 ft 11 kts 250°
2026-05-01 11:23 37.45469 126.46050 36 ft 0 kts 325°
2026-05-01 11:24 37.45469 126.46049 36 ft 0 kts 325°
2026-05-01 11:24 37.45474 126.46045 36 ft 5 kts 325°
2026-05-01 11:25 37.45595 126.45938 36 ft 47 kts 323°
2026-05-01 11:25 37.46798 126.44852 37 ft 163 kts 324°
2026-05-01 11:25 37.47821 126.43969 322 ft 182 kts 322°
2026-05-01 11:26 37.48858 126.43111 1172 ft 176 kts 322°
2026-05-01 11:26 37.50887 126.41475 2434 ft 179 kts 323°
2026-05-01 11:26 37.51950 126.40601 2938 ft 181 kts 323°
2026-05-01 11:27 37.53010 126.39725 3374 ft 191 kts 324°
2026-05-01 11:27 37.54179 126.38757 3553 ft 205 kts 324°
2026-05-01 11:27 37.55396 126.37761 3666 ft 219 kts 327°
2026-05-01 11:27 37.56808 126.36938 3931 ft 228 kts 336°
2026-05-01 11:28 37.58364 126.36316 4312 ft 235 kts 341°
2026-05-01 11:28 37.59965 126.35785 4765 ft 240 kts 344°
2026-05-01 11:28 37.61643 126.35598 5247 ft 247 kts 359°
2026-05-01 11:29 37.64840 126.37061 5506 ft 261 kts 31°
2026-05-01 11:29 37.66185 126.38689 5511 ft 273 kts 46°
2026-05-01 11:29 37.67719 126.43118 5500 ft 282 kts 76°
2026-05-01 11:30 37.67777 126.45609 5514 ft 286 kts 91°
2026-05-01 11:30 37.67333 126.48011 5863 ft 287 kts 107°
2026-05-01 11:30 37.66421 126.50266 6448 ft 288 kts 118°
2026-05-01 11:30 37.65364 126.52405 7091 ft 289 kts 121°
2026-05-01 11:31 37.64198 126.54493 7519 ft 295 kts 128°
2026-05-01 11:31 37.62766 126.56430 7982 ft 301 kts 134°
2026-05-01 11:31 37.61228 126.58256 8504 ft 305 kts 137°
2026-05-01 11:31 37.59630 126.60037 8994 ft 309 kts 139°
2026-05-01 11:32 37.58006 126.61826 9542 ft 311 kts 138°
2026-05-01 11:32 37.56402 126.63617 10098 ft 312 kts 137°
2026-05-01 11:32 37.54847 126.65567 10474 ft 321 kts 128°
2026-05-01 11:32 37.53517 126.67913 10643 ft 337 kts 122°
2026-05-01 11:33 37.52199 126.70455 10795 ft 355 kts 121°
2026-05-01 11:33 37.50862 126.73158 10965 ft 372 kts 119°
2026-05-01 11:33 37.49489 126.76017 11110 ft 392 kts 118°
2026-05-01 11:33 37.48047 126.79024 11283 ft 410 kts 119°
2026-05-01 11:34 37.46534 126.82156 11421 ft 429 kts 119°
2026-05-01 11:34 37.44951 126.85425 11677 ft 443 kts 119°
2026-05-01 11:34 37.43400 126.88787 12321 ft 444 kts 112°
2026-05-01 11:34 37.42499 126.92473 12886 ft 440 kts 95°
2026-05-01 11:35 37.42401 126.96296 13492 ft 437 kts 83°
2026-05-01 11:35 37.42678 127.00109 14089 ft 439 kts 78°
2026-05-01 11:35 37.43155 127.03915 14609 ft 442 kts 75°
2026-05-01 11:35 37.43769 127.07709 15173 ft 445 kts 73°
2026-05-01 11:36 37.44439 127.11535 15620 ft 451 kts 73°
2026-05-01 11:36 37.45096 127.15425 16079 ft 458 kts 73°
2026-05-01 11:36 37.45743 127.19374 16544 ft 463 kts 73°
2026-05-01 11:36 37.46391 127.23367 17027 ft 468 kts 73°
2026-05-01 11:37 37.47042 127.27399 17499 ft 472 kts 73°
2026-05-01 11:37 37.47698 127.31465 17981 ft 476 kts 73°
2026-05-01 11:37 37.48360 127.35570 18467 ft 480 kts 73°
2026-05-01 11:37 37.49028 127.39705 18914 ft 484 kts 73°
2026-05-01 11:38 37.49714 127.43875 19345 ft 488 kts 73°
2026-05-01 11:38 37.50391 127.48078 19767 ft 493 kts 73°
2026-05-01 11:38 37.51067 127.52327 20206 ft 496 kts 73°
2026-05-01 11:38 37.51746 127.56604 20621 ft 500 kts 73°
2026-05-01 11:39 37.52431 127.60925 21006 ft 505 kts 73°
2026-05-01 11:39 37.53120 127.65266 21412 ft 508 kts 73°
2026-05-01 11:39 37.53814 127.69653 21780 ft 512 kts 73°
2026-05-01 11:39 37.54514 127.74072 22166 ft 516 kts 73°
2026-05-01 11:40 37.55245 127.78520 22491 ft 520 kts 73°
2026-05-01 11:40 37.55961 127.82999 22877 ft 524 kts 73°
2026-05-01 11:40 37.56670 127.87521 23203 ft 527 kts 73°
2026-05-01 11:40 37.57378 127.92071 23563 ft 530 kts 73°
2026-05-01 11:41 37.58086 127.96644 23896 ft 534 kts 73°
2026-05-01 11:41 37.58798 128.01246 24232 ft 536 kts 73°
2026-05-01 11:41 37.59513 128.05882 24489 ft 541 kts 73°
2026-05-01 11:41 37.60235 128.10547 24828 ft 543 kts 73°
2026-05-01 11:42 37.60714 128.13650 25033 ft 545 kts 73°
2026-05-01 11:42 37.61437 128.18346 25388 ft 546 kts 73°
2026-05-01 11:42 37.62186 128.23030 25814 ft 545 kts 72°
2026-05-01 11:42 37.62917 128.27723 26235 ft 545 kts 73°
2026-05-01 11:43 37.63634 128.32418 26612 ft 546 kts 73°
2026-05-01 11:43 37.64347 128.37123 26960 ft 546 kts 73°
2026-05-01 11:43 37.65056 128.41827 27345 ft 546 kts 72°
2026-05-01 11:44 37.66472 128.51241 28079 ft 545 kts 72°
2026-05-01 11:44 37.67180 128.55939 28415 ft 545 kts 72°
2026-05-01 11:44 37.67888 128.60645 28770 ft 544 kts 72°
2026-05-01 11:44 37.68591 128.65339 29102 ft 544 kts 72°
2026-05-01 11:45 37.69287 128.70031 29442 ft 543 kts 72°
2026-05-01 11:45 37.69887 128.74758 29712 ft 549 kts 77°
2026-05-01 11:45 37.70116 128.79589 30028 ft 552 kts 82°
2026-05-01 11:45 37.70126 128.84446 30339 ft 554 kts 85°
2026-05-01 11:46 37.70019 128.89315 30575 ft 555 kts 86°
2026-05-01 11:46 37.69901 128.94178 30928 ft 552 kts 86°
2026-05-01 11:46 37.69808 128.99023 31149 ft 552 kts 85°
2026-05-01 11:46 37.69729 129.03872 31379 ft 552 kts 86°
2026-05-01 11:47 37.69654 129.08713 31652 ft 550 kts 86°
2026-05-01 11:47 37.69582 129.13543 31863 ft 550 kts 86°
2026-05-01 11:47 37.69511 129.18363 32085 ft 549 kts 86°
2026-05-01 11:47 37.69468 129.23174 32285 ft 547 kts 86°
2026-05-01 11:48 37.69420 129.27978 32495 ft 546 kts 86°
2026-05-01 11:48 37.69386 129.32771 32656 ft 546 kts 86°
2026-05-01 11:48 37.69324 129.37561 32790 ft 546 kts 86°
2026-05-01 11:48 37.69247 129.42374 32817 ft 549 kts 87°
2026-05-01 11:49 37.69076 129.52050 32818 ft 554 kts 87°
2026-05-01 11:49 37.68898 129.61811 32815 ft 557 kts 88°
2026-05-01 11:50 37.68725 129.71561 32812 ft 554 kts 88°
2026-05-01 11:50 37.68540 129.81284 32810 ft 553 kts 88°
2026-05-01 11:51 37.68376 129.90980 32809 ft 552 kts 88°
2026-05-01 11:51 37.68187 130.00609 32808 ft 552 kts 88°
2026-05-01 11:52 37.67969 130.10288 32807 ft 551 kts 88°
2026-05-01 11:52 37.67745 130.19947 32806 ft 551 kts 88°
2026-05-01 11:53 37.67519 130.29676 32836 ft 551 kts 88°
2026-05-01 11:53 37.67279 130.39342 32862 ft 551 kts 89°
2026-05-01 11:54 37.67027 130.48999 32862 ft 550 kts 89°
2026-05-01 11:54 37.66767 130.58657 32858 ft 550 kts 89°
2026-05-01 11:55 37.66500 130.68300 32858 ft 549 kts 89°
2026-05-01 11:55 37.66281 130.77926 32854 ft 549 kts 88°
2026-05-01 11:56 37.66037 130.87539 32851 ft 548 kts 89°
2026-05-01 11:56 37.65770 130.97136 32852 ft 546 kts 89°
2026-05-01 11:57 37.65492 131.06705 32851 ft 545 kts 89°
2026-05-01 11:57 37.65207 131.16244 32849 ft 543 kts 89°
2026-05-01 11:58 37.64952 131.25755 32848 ft 541 kts 89°
2026-05-01 11:59 37.64484 131.39960 32846 ft 539 kts 89°
2026-05-01 11:59 37.64162 131.49395 32844 ft 538 kts 89°
2026-05-01 12:00 37.63809 131.63445 32843 ft 535 kts 86°
2026-05-01 12:01 37.63963 131.77473 32841 ft 532 kts 86°
2026-05-01 12:01 37.64007 131.86799 32836 ft 531 kts 87°
2026-05-01 12:02 37.64033 131.96117 32821 ft 531 kts 87°
2026-05-01 12:02 37.64084 132.05436 32816 ft 530 kts 86°
2026-05-01 12:03 37.64136 132.14719 32815 ft 529 kts 87°
2026-05-01 12:03 37.64157 132.23997 32814 ft 529 kts 87°
2026-05-01 12:04 37.64201 132.33281 32812 ft 529 kts 87°
2026-05-01 12:04 37.64200 132.42575 32807 ft 529 kts 87°
2026-05-01 12:05 37.64180 132.51859 32809 ft 530 kts 87°
2026-05-01 12:05 37.64148 132.65807 32806 ft 529 kts 86°
2026-05-01 12:06 37.64678 132.75041 32806 ft 527 kts 80°
2026-05-01 12:06 37.65445 132.84221 32791 ft 525 kts 81°
2026-05-01 12:07 37.66124 132.93387 32790 ft 525 kts 82°
2026-05-01 12:07 37.66798 133.02549 32786 ft 523 kts 82°
2026-05-01 12:08 37.67457 133.11686 32785 ft 522 kts 82°
2026-05-01 12:08 37.68105 133.20803 32782 ft 521 kts 82°
2026-05-01 12:09 37.68747 133.29917 32774 ft 524 kts 82°
2026-05-01 12:09 37.69454 133.39124 32773 ft 530 kts 81°
2026-05-01 12:10 37.70440 133.53145 32773 ft 538 kts 82°
2026-05-01 12:11 37.71390 133.67251 32769 ft 536 kts 82°
2026-05-01 12:11 37.72017 133.76619 32767 ft 534 kts 82°
2026-05-01 12:12 37.72622 133.85961 32764 ft 533 kts 83°
2026-05-01 12:12 37.73214 133.95305 32763 ft 533 kts 83°
2026-05-01 12:13 37.73795 134.04635 32761 ft 533 kts 83°
2026-05-01 12:13 37.74368 134.13967 32758 ft 532 kts 83°
2026-05-01 12:14 37.74985 134.23289 32709 ft 533 kts 82°
2026-05-01 12:14 37.75597 134.32613 32680 ft 532 kts 83°
2026-05-01 12:15 37.76177 134.41878 32677 ft 532 kts 83°
2026-05-01 12:15 37.76746 134.51206 32675 ft 532 kts 83°
2026-05-01 12:16 37.77306 134.60535 32673 ft 532 kts 83°
2026-05-01 12:16 37.77857 134.69859 32653 ft 532 kts 83°
2026-05-01 12:17 37.78401 134.79180 32647 ft 531 kts 83°
2026-05-01 12:17 37.78937 134.88499 32592 ft 531 kts 83°
2026-05-01 12:18 37.79463 134.97790 32582 ft 529 kts 83°
2026-05-01 12:18 37.79982 135.07072 32580 ft 528 kts 83°
2026-05-01 12:19 37.80492 135.16315 32547 ft 527 kts 83°
2026-05-01 12:19 37.80993 135.25543 32545 ft 525 kts 83°
2026-05-01 12:20 37.81486 135.34749 32543 ft 523 kts 83°
2026-05-01 12:20 37.81969 135.43914 32542 ft 522 kts 83°
2026-05-01 12:21 37.82445 135.53063 32540 ft 520 kts 84°
2026-05-01 12:21 37.82911 135.62175 32538 ft 519 kts 84°
2026-05-01 12:22 37.83293 135.69730 32536 ft 518 kts 84°
2026-05-01 12:22 37.83820 135.80337 32534 ft 516 kts 84°
2026-05-01 12:23 37.84263 135.89399 32533 ft 515 kts 84°
2026-05-01 12:23 37.84698 135.98445 32532 ft 515 kts 84°
2026-05-01 12:24 37.85126 136.07486 32530 ft 515 kts 84°
2026-05-01 12:24 37.85476 136.15002 32529 ft 515 kts 84°
2026-05-01 12:25 37.86098 136.28586 32527 ft 516 kts 84°
2026-05-01 12:26 37.86504 136.37655 32527 ft 517 kts 84°
2026-05-01 12:26 37.87101 136.51291 32530 ft 518 kts 85°
2026-05-01 12:27 37.87684 136.64965 32528 ft 520 kts 85°
2026-05-01 12:28 37.88254 136.78685 32528 ft 521 kts 85°
2026-05-01 12:29 37.88837 136.92431 32527 ft 522 kts 86°
2026-05-01 12:29 37.89375 137.06211 32525 ft 523 kts 87°
2026-05-01 12:30 37.89878 137.19999 32518 ft 522 kts 87°
2026-05-01 12:31 37.90212 137.29177 32509 ft 522 kts 88°
2026-05-01 12:31 37.90554 137.38353 32509 ft 521 kts 88°
2026-05-01 12:32 37.90883 137.47513 32507 ft 520 kts 88°
2026-05-01 12:32 37.91364 137.61236 32504 ft 519 kts 89°
2026-05-01 12:33 37.91686 137.70362 32502 ft 519 kts 88°
2026-05-01 12:33 37.92072 137.79413 32501 ft 518 kts 89°
2026-05-01 12:34 37.92377 137.88519 32499 ft 517 kts 89°
2026-05-01 12:34 37.92665 137.97624 32500 ft 517 kts 90°
2026-05-01 12:35 37.92951 138.06718 32498 ft 517 kts 90°
2026-05-01 12:35 37.93232 138.15816 32496 ft 517 kts 90°
2026-05-01 12:36 37.93499 138.24916 32495 ft 518 kts 90°
2026-05-01 12:36 37.93756 138.34036 32500 ft 518 kts 90°
2026-05-01 12:37 37.94009 138.43162 32493 ft 519 kts 90°
2026-05-01 12:37 37.94258 138.52312 32485 ft 519 kts 90°
2026-05-01 12:38 37.94549 138.61464 32493 ft 521 kts 90°
2026-05-01 12:38 37.94813 138.70656 32491 ft 523 kts 90°
2026-05-01 12:39 37.95093 138.79872 32491 ft 523 kts 91°
2026-05-01 12:39 37.95318 138.89100 32491 ft 524 kts 92°
2026-05-01 12:40 37.95531 138.98334 32491 ft 525 kts 92°
2026-05-01 12:40 37.95741 139.07579 32491 ft 525 kts 92°
2026-05-01 12:41 37.96298 139.16823 32493 ft 528 kts 87°
2026-05-01 12:41 37.97338 139.26048 32491 ft 530 kts 86°
2026-05-01 12:42 37.98341 139.35329 32489 ft 531 kts 87°
2026-05-01 12:42 37.99370 139.44526 32486 ft 531 kts 88°
2026-05-01 12:43 38.00335 139.53796 32483 ft 529 kts 88°
2026-05-01 12:43 38.01276 139.63030 32476 ft 526 kts 89°
2026-05-01 12:44 38.02213 139.72237 32449 ft 527 kts 89°
2026-05-01 12:45 38.04070 139.90720 32418 ft 529 kts 89°
2026-05-01 12:45 38.04983 139.99983 32407 ft 529 kts 89°
2026-05-01 12:46 38.05887 140.09230 32396 ft 529 kts 89°
2026-05-01 12:46 38.06786 140.18489 32387 ft 529 kts 89°
2026-05-01 12:47 38.07735 140.27750 32381 ft 529 kts 89°
2026-05-01 12:47 38.08651 140.37005 32375 ft 528 kts 90°
2026-05-01 12:48 38.09545 140.46250 32353 ft 528 kts 90°
2026-05-01 12:48 38.10449 140.55443 32350 ft 528 kts 90°
2026-05-01 12:49 38.11336 140.64696 32348 ft 528 kts 91°
2026-05-01 12:49 38.12191 140.73950 32347 ft 527 kts 91°
2026-05-01 12:50 38.13039 140.83205 32345 ft 528 kts 92°
2026-05-01 12:50 38.13623 140.92440 32349 ft 518 kts 100°
2026-05-01 12:51 38.12966 141.01460 32345 ft 509 kts 108°
2026-05-01 12:52 38.11330 141.14664 32346 ft 503 kts 109°
2026-05-01 12:52 38.09778 141.27814 32349 ft 501 kts 109°
2026-05-01 12:53 38.08287 141.40926 32353 ft 500 kts 110°
2026-05-01 12:54 38.07297 141.49659 32356 ft 499 kts 110°
2026-05-01 12:54 38.05776 141.62706 32360 ft 498 kts 111°
2026-05-01 12:55 38.04276 141.75730 32366 ft 497 kts 111°
2026-05-01 12:56 38.03242 141.84330 32369 ft 496 kts 112°
2026-05-01 12:56 38.02192 141.92972 32372 ft 495 kts 112°
2026-05-01 12:57 38.01142 142.01600 32374 ft 495 kts 112°
2026-05-01 12:57 37.99556 142.14547 32378 ft 495 kts 112°
2026-05-01 12:58 37.98483 142.23164 32380 ft 495 kts 112°
2026-05-01 12:59 37.96856 142.36129 32384 ft 497 kts 112°
2026-05-01 12:59 37.95213 142.49119 32388 ft 499 kts 112°
2026-05-01 13:00 37.93621 142.62195 32392 ft 502 kts 112°
2026-05-01 13:01 37.91964 142.75293 32395 ft 503 kts 112°
2026-05-01 13:02 37.90309 142.88437 32397 ft 504 kts 112°
2026-05-01 13:07 37.74582 143.78991 32415 ft 491 kts 122°
2026-05-01 13:07 37.73416 143.83054 32416 ft 492 kts 122°
2026-05-01 13:08 37.71089 143.91175 32418 ft 492 kts 122°
2026-05-01 13:08 37.68791 143.99319 32420 ft 492 kts 122°
2026-05-01 13:09 37.66497 144.07483 32404 ft 495 kts 122°
2026-05-01 13:09 37.64171 144.15663 32393 ft 495 kts 122°
2026-05-01 13:10 37.61833 144.23830 32370 ft 495 kts 122°
2026-05-01 13:10 37.59486 144.31995 32366 ft 496 kts 122°
2026-05-01 13:11 37.57125 144.40181 32366 ft 497 kts 122°
2026-05-01 13:11 37.54752 144.48384 32368 ft 499 kts 121°
2026-05-01 13:12 37.52772 144.55210 32369 ft 500 kts 121°
2026-05-01 13:12 37.50376 144.63447 32370 ft 502 kts 121°
2026-05-01 13:13 37.47967 144.71702 32371 ft 503 kts 121°
2026-05-01 13:13 37.45545 144.79976 32371 ft 504 kts 121°
2026-05-01 13:14 37.43110 144.88271 32372 ft 506 kts 121°
2026-05-01 13:14 37.40661 144.96590 32373 ft 508 kts 121°
2026-05-01 13:15 37.38196 145.04934 32374 ft 510 kts 121°
2026-05-01 13:15 37.35720 145.13295 32375 ft 511 kts 120°
2026-05-01 13:16 37.33227 145.21684 32375 ft 513 kts 120°
2026-05-01 13:16 37.30731 145.30088 32375 ft 515 kts 120°
2026-05-01 13:17 37.25699 145.46955 32377 ft 517 kts 120°
2026-05-01 13:18 37.21869 145.59617 32379 ft 518 kts 120°
2026-05-01 13:18 37.20901 145.64015 32392 ft 534 kts 108°
2026-05-01 13:18 37.20768 145.68752 32396 ft 552 kts 95°
2026-05-01 13:19 37.22123 145.78297 32390 ft 560 kts 82°
2026-05-01 13:20 37.25523 145.92471 32381 ft 570 kts 80°
2026-05-01 13:20 37.27753 146.02047 32381 ft 571 kts 81°
2026-05-01 13:21 37.31050 146.16372 32384 ft 572 kts 79°
2026-05-01 13:21 37.33246 146.25977 32385 ft 572 kts 80°
2026-05-01 13:22 37.35412 146.35591 32386 ft 572 kts 80°
2026-05-01 13:22 37.37565 146.45213 32387 ft 572 kts 80°
2026-05-01 13:23 37.39708 146.54841 32389 ft 573 kts 80°
2026-05-01 13:23 37.41846 146.64488 32390 ft 573 kts 80°
2026-05-01 13:24 37.43977 146.74151 32391 ft 573 kts 80°
2026-05-01 13:25 37.47164 146.88670 32393 ft 574 kts 80°
2026-05-01 13:25 37.49279 146.98362 32394 ft 574 kts 80°
2026-05-01 13:26 37.51386 147.08056 32396 ft 574 kts 80°
2026-05-01 13:26 37.53485 147.17757 32434 ft 574 kts 80°
2026-05-01 13:27 37.55564 147.27411 32531 ft 575 kts 80°
2026-05-01 13:27 37.58696 147.42024 32565 ft 576 kts 80°
2026-05-01 13:28 37.61813 147.56668 32568 ft 576 kts 80°
2026-05-01 13:29 37.65944 147.76229 32573 ft 577 kts 80°
2026-05-01 13:31 37.72083 148.05623 32579 ft 577 kts 80°
2026-05-01 13:32 37.77150 148.30186 32584 ft 577 kts 80°
2026-05-01 13:33 37.82159 148.54753 32589 ft 577 kts 80°
2026-05-01 13:34 37.86126 148.74413 32593 ft 576 kts 80°
2026-05-01 13:35 37.89078 148.89165 32595 ft 577 kts 79°
2026-05-01 13:36 37.92014 149.03938 32598 ft 576 kts 79°
2026-05-01 13:36 37.94917 149.18646 32600 ft 577 kts 79°
2026-05-01 13:37 37.96852 149.28513 32602 ft 577 kts 79°
2026-05-01 13:37 37.98779 149.38383 32603 ft 577 kts 79°
2026-05-01 13:38 38.01653 149.53193 32607 ft 577 kts 78°
2026-05-01 13:39 38.03577 149.63076 32608 ft 577 kts 78°
2026-05-01 13:39 38.05492 149.72956 32609 ft 576 kts 78°
2026-05-01 13:40 38.07365 149.82839 32612 ft 576 kts 78°
2026-05-01 13:40 38.09229 149.92722 32613 ft 575 kts 78°
2026-05-01 13:41 38.11438 150.02481 32615 ft 577 kts 71°
2026-05-01 13:41 38.14536 150.11884 32617 ft 578 kts 67°
2026-05-01 13:42 38.17819 150.21219 32618 ft 579 kts 67°
2026-05-01 13:42 38.21044 150.30605 32620 ft 580 kts 67°
2026-05-01 13:43 38.24242 150.40015 32621 ft 580 kts 67°
2026-05-01 13:43 38.27499 150.49422 32622 ft 581 kts 67°
2026-05-01 13:44 38.30729 150.58863 32624 ft 582 kts 67°
2026-05-01 13:44 38.33941 150.68336 32625 ft 583 kts 67°
2026-05-01 13:45 38.37146 150.77836 32628 ft 584 kts 67°
2026-05-01 13:45 38.40343 150.87349 32629 ft 584 kts 67°
2026-05-01 13:46 38.43516 150.96823 32631 ft 585 kts 67°
2026-05-01 13:46 38.46706 151.06381 32632 ft 586 kts 67°
2026-05-01 13:47 38.49895 151.15965 32633 ft 586 kts 67°
2026-05-01 13:47 38.53074 151.25555 32635 ft 587 kts 67°
2026-05-01 13:48 38.56249 151.35163 32637 ft 587 kts 67°
2026-05-01 13:48 38.59417 151.44782 32638 ft 587 kts 67°
2026-05-01 13:49 38.62576 151.54408 32600 ft 587 kts 67°
2026-05-01 13:49 38.65731 151.64053 32600 ft 588 kts 67°
2026-05-01 13:50 38.68882 151.73717 32601 ft 588 kts 67°
2026-05-01 13:50 38.72025 151.83392 32604 ft 588 kts 67°
2026-05-01 13:51 38.75160 151.93072 32605 ft 588 kts 67°
2026-05-01 13:51 38.78287 152.02766 32607 ft 589 kts 67°
2026-05-01 13:52 38.81414 152.12489 32609 ft 590 kts 67°
2026-05-01 13:52 38.84535 152.22230 32610 ft 591 kts 67°
2026-05-01 13:53 38.87649 152.31978 32612 ft 590 kts 67°
2026-05-01 13:53 38.92307 152.46629 32615 ft 591 kts 66°
2026-05-01 13:54 38.95404 152.56410 32616 ft 591 kts 67°
2026-05-01 13:54 38.98493 152.66203 32618 ft 591 kts 66°
2026-05-01 13:55 39.01574 152.76003 32620 ft 591 kts 67°
2026-05-01 13:55 39.04647 152.85814 32622 ft 592 kts 67°
2026-05-01 13:56 39.07717 152.95650 32624 ft 592 kts 67°
2026-05-01 13:56 39.10756 153.05423 32626 ft 592 kts 67°
2026-05-01 13:57 39.13315 153.13676 32627 ft 592 kts 66°
2026-05-01 13:57 39.16853 153.25132 32629 ft 592 kts 66°
2026-05-01 13:58 39.19888 153.34995 32631 ft 592 kts 66°
2026-05-01 13:58 39.22913 153.44860 32633 ft 591 kts 66°
2026-05-01 13:59 39.25440 153.53131 32634 ft 592 kts 66°
2026-05-01 13:59 39.28454 153.63027 32636 ft 592 kts 66°
2026-05-01 14:00 39.31456 153.72922 32638 ft 592 kts 66°
2026-05-01 14:00 39.34449 153.82822 32639 ft 592 kts 67°
2026-05-01 14:01 39.37437 153.92739 32641 ft 592 kts 67°
2026-05-01 14:01 39.40397 154.02604 32643 ft 593 kts 66°
2026-05-01 14:02 39.43370 154.12544 32645 ft 592 kts 66°
2026-05-01 14:02 39.46327 154.22471 32646 ft 591 kts 66°
2026-05-01 14:03 39.49281 154.32422 32648 ft 592 kts 66°
2026-05-01 14:03 39.52221 154.42364 32650 ft 592 kts 66°
2026-05-01 14:04 39.55155 154.52323 32652 ft 592 kts 66°
2026-05-01 14:04 39.58080 154.62290 32654 ft 591 kts 66°
2026-05-01 14:05 39.60995 154.72257 32655 ft 591 kts 66°
2026-05-01 14:05 39.63899 154.82225 32657 ft 591 kts 66°
2026-05-01 14:06 39.66794 154.92201 32659 ft 590 kts 66°
2026-05-01 14:06 39.69674 155.02165 32661 ft 589 kts 66°
2026-05-01 14:07 39.72545 155.12132 32662 ft 589 kts 66°
2026-05-01 14:08 39.76838 155.27107 32665 ft 589 kts 66°
2026-05-01 14:08 39.79686 155.37091 32667 ft 589 kts 66°
2026-05-01 14:09 39.82509 155.47026 32668 ft 588 kts 66°
2026-05-01 14:09 39.85334 155.57004 32669 ft 588 kts 66°
2026-05-01 14:10 39.88152 155.66997 32671 ft 587 kts 66°
2026-05-01 14:10 39.90957 155.76982 32673 ft 588 kts 66°
2026-05-01 14:11 39.93761 155.87001 32675 ft 588 kts 66°
2026-05-01 14:11 39.97948 156.02036 32677 ft 588 kts 66°
2026-05-01 14:12 40.00727 156.12065 32679 ft 588 kts 66°
2026-05-01 14:12 40.03499 156.22105 32681 ft 588 kts 67°
2026-05-01 14:13 40.05797 156.30463 32682 ft 588 kts 66°
2026-05-01 14:13 40.09015 156.42209 32684 ft 588 kts 67°
2026-05-01 14:14 40.11759 156.52269 32687 ft 588 kts 67°
2026-05-01 14:14 40.14496 156.62345 32688 ft 588 kts 67°
2026-05-01 14:15 40.17204 156.72353 32690 ft 588 kts 66°
2026-05-01 14:15 40.19923 156.82441 32692 ft 588 kts 66°
2026-05-01 14:16 40.22631 156.92529 32693 ft 588 kts 66°
2026-05-01 14:16 40.25350 157.02698 32695 ft 588 kts 66°
2026-05-01 14:17 40.28043 157.12814 32697 ft 588 kts 66°
2026-05-01 14:17 40.30709 157.22864 32699 ft 587 kts 66°
2026-05-01 14:18 40.33378 157.32969 32701 ft 587 kts 66°
2026-05-01 14:18 40.35610 157.41453 32702 ft 588 kts 66°
2026-05-01 14:19 40.38697 157.53233 32704 ft 587 kts 66°
2026-05-01 14:19 40.41343 157.63374 32706 ft 588 kts 67°
2026-05-01 14:20 40.45294 157.78598 32709 ft 587 kts 66°
2026-05-01 14:21 40.47915 157.88753 32710 ft 587 kts 67°
2026-05-01 14:21 40.50528 157.98913 32713 ft 587 kts 67°
2026-05-01 14:22 40.54434 158.14188 32715 ft 588 kts 66°
2026-05-01 14:22 40.57029 158.24389 32716 ft 589 kts 66°
2026-05-01 14:23 40.59599 158.34533 32718 ft 588 kts 66°
2026-05-01 14:23 40.62178 158.44755 32720 ft 589 kts 66°
2026-05-01 14:24 40.64745 158.54976 32759 ft 589 kts 66°
2026-05-01 14:24 40.67309 158.65226 32764 ft 589 kts 66°
2026-05-01 14:25 40.69864 158.75485 32766 ft 589 kts 66°
2026-05-01 14:25 40.72412 158.85761 32768 ft 590 kts 66°
2026-05-01 14:26 40.76222 159.01209 32770 ft 590 kts 66°
2026-05-01 14:27 40.78750 159.11515 32773 ft 590 kts 66°
2026-05-01 14:27 40.81267 159.21823 32774 ft 591 kts 66°
2026-05-01 14:28 40.85035 159.37338 32777 ft 592 kts 66°
2026-05-01 14:28 40.87534 159.47687 32778 ft 591 kts 66°
2026-05-01 14:29 40.90027 159.58053 32781 ft 591 kts 66°
2026-05-01 14:30 40.94986 159.78694 32792 ft 592 kts 66°
2026-05-01 14:31 40.98657 159.94289 32794 ft 592 kts 66°
2026-05-01 14:31 41.00827 160.04828 32796 ft 596 kts 71°
2026-05-01 14:32 41.02349 160.15645 32797 ft 599 kts 74°
2026-05-01 14:32 41.03806 160.26521 32799 ft 600 kts 73°
2026-05-01 14:33 41.05301 160.37399 32799 ft 600 kts 73°
2026-05-01 14:33 41.06824 160.48273 32801 ft 600 kts 72°
2026-05-01 14:34 41.08402 160.59120 32802 ft 599 kts 72°
2026-05-01 14:34 41.09935 160.69986 32802 ft 600 kts 73°
2026-05-01 14:35 41.11448 160.80879 32797 ft 601 kts 73°
2026-05-01 14:35 41.12947 160.91780 32800 ft 601 kts 72°
2026-05-01 14:36 41.14435 161.02686 32800 ft 601 kts 72°
2026-05-01 14:36 41.15912 161.13593 32802 ft 601 kts 72°
2026-05-01 14:37 41.17378 161.24501 32803 ft 601 kts 72°
2026-05-01 14:37 41.18835 161.35425 32803 ft 601 kts 72°
2026-05-01 14:38 41.20282 161.46353 32805 ft 601 kts 72°
2026-05-01 14:38 41.21719 161.57293 32805 ft 601 kts 72°
2026-05-01 14:39 41.23146 161.68240 32805 ft 602 kts 72°
2026-05-01 14:39 41.24565 161.79207 32805 ft 602 kts 72°
2026-05-01 14:40 41.25973 161.90177 32806 ft 603 kts 72°
2026-05-01 14:40 41.27373 162.01166 32807 ft 603 kts 72°
2026-05-01 14:41 41.28761 162.12170 32808 ft 604 kts 71°
2026-05-01 14:41 41.30143 162.23184 32809 ft 603 kts 71°
2026-05-01 14:42 41.31511 162.34186 32810 ft 603 kts 71°
2026-05-01 14:42 41.32870 162.45202 32811 ft 603 kts 71°
2026-05-01 14:43 41.34219 162.56224 32812 ft 604 kts 71°
2026-05-01 14:43 41.35557 162.67257 32813 ft 604 kts 71°
2026-05-01 14:44 41.36884 162.78284 32813 ft 603 kts 71°
2026-05-01 14:44 41.38857 162.94866 32814 ft 605 kts 71°
2026-05-01 14:45 41.40593 163.09584 32823 ft 602 kts 71°
2026-05-01 14:46 41.41881 163.20633 32813 ft 606 kts 71°
2026-05-01 14:46 41.43789 163.37210 32820 ft 604 kts 71°
2026-05-01 14:47 41.45050 163.48285 32827 ft 603 kts 71°
2026-05-01 14:48 41.46920 163.64875 32823 ft 602 kts 70°
2026-05-01 14:48 41.48765 163.81453 32840 ft 602 kts 70°
2026-05-01 14:49 41.51194 164.03637 32820 ft 603 kts 70°
2026-05-01 14:50 41.53574 164.25788 32807 ft 601 kts 70°
2026-05-01 14:51 41.55330 164.42406 32822 ft 604 kts 70°
2026-05-01 14:52 41.57073 164.59059 32814 ft 604 kts 70°
2026-05-01 14:53 41.58778 164.75741 32832 ft 603 kts 70°
2026-05-01 14:53 41.59898 164.86800 32834 ft 600 kts 70°
2026-05-01 14:54 41.61016 164.97843 32848 ft 600 kts 71°
2026-05-01 14:54 41.62109 165.08907 32828 ft 601 kts 71°
2026-05-01 14:55 41.63206 165.19956 32821 ft 601 kts 71°
2026-05-01 14:55 41.64279 165.30957 32811 ft 595 kts 71°
2026-05-01 14:56 41.65332 165.41938 32833 ft 596 kts 71°
2026-05-01 14:56 41.66380 165.52927 32830 ft 597 kts 71°
2026-05-01 14:57 41.67422 165.63937 32832 ft 593 kts 71°
2026-05-01 14:57 41.68951 165.80333 32832 ft 592 kts 71°
2026-05-01 14:58 41.69960 165.91283 32832 ft 593 kts 71°
2026-05-01 14:58 41.70957 166.02228 32832 ft 592 kts 71°
2026-05-01 14:59 41.71941 166.13141 32832 ft 590 kts 71°
2026-05-01 14:59 41.72908 166.23983 32833 ft 591 kts 71°
2026-05-01 15:00 41.74350 166.40376 32834 ft 591 kts 71°
2026-05-01 15:01 41.75298 166.51305 32834 ft 591 kts 71°
2026-05-01 15:01 41.76237 166.62249 32834 ft 592 kts 71°
2026-05-01 15:02 41.77165 166.73198 32884 ft 591 kts 71°
2026-05-01 15:02 41.78083 166.84142 32922 ft 592 kts 71°
2026-05-01 15:03 41.78991 166.95108 32922 ft 591 kts 72°
2026-05-01 15:03 41.79888 167.06059 32922 ft 591 kts 72°
2026-05-01 15:04 41.80774 167.17005 32921 ft 590 kts 72°
2026-05-01 15:04 41.81648 167.27935 32921 ft 590 kts 72°
2026-05-01 15:05 41.82511 167.38864 32920 ft 588 kts 72°
2026-05-01 15:05 41.83359 167.49737 32919 ft 586 kts 72°
2026-05-01 15:06 41.84195 167.60590 32918 ft 584 kts 72°
2026-05-01 15:06 41.85018 167.71405 32918 ft 583 kts 73°
2026-05-01 15:07 41.85830 167.82216 32918 ft 583 kts 73°
2026-05-01 15:07 41.86632 167.93030 32918 ft 583 kts 73°
2026-05-01 15:08 41.87419 168.03776 32917 ft 582 kts 73°
2026-05-01 15:08 41.88200 168.14588 32917 ft 583 kts 73°
2026-05-01 15:09 41.88973 168.25418 32916 ft 583 kts 73°
2026-05-01 15:09 41.89736 168.36288 32900 ft 589 kts 71°
2026-05-01 15:10 41.90495 168.47266 32923 ft 593 kts 71°
2026-05-01 15:10 41.91248 168.58222 33602 ft 585 kts 70°
2026-05-01 15:10 41.91618 168.63645 33982 ft 581 kts 70°
2026-05-01 15:11 41.91980 168.69037 34309 ft 578 kts 69°
2026-05-01 15:11 41.92700 168.79762 34813 ft 577 kts 70°
2026-05-01 15:12 41.93402 168.90537 34928 ft 582 kts 71°
2026-05-01 15:12 41.94451 169.06869 34910 ft 589 kts 72°
2026-05-01 15:14 41.96160 169.34252 34910 ft 586 kts 73°
2026-05-01 15:14 41.97145 169.50508 34909 ft 583 kts 73°
2026-05-01 15:15 41.98461 169.72188 34908 ft 581 kts 74°
2026-05-01 15:16 41.99660 169.93837 34907 ft 580 kts 75°
2026-05-01 15:18 42.02830 170.20202 34906 ft 566 kts 67°
2026-05-01 15:19 42.05792 170.41000 34905 ft 566 kts 68°
2026-05-01 15:19 42.08044 170.56583 34904 ft 565 kts 67°
2026-05-01 15:20 42.10250 170.72157 34903 ft 565 kts 68°
2026-05-01 15:21 42.11694 170.82540 34902 ft 563 kts 68°
2026-05-01 15:21 42.13120 170.92893 34903 ft 561 kts 68°
2026-05-01 15:22 42.15234 171.08396 34902 ft 561 kts 69°
2026-05-01 15:22 42.16630 171.18732 34901 ft 560 kts 69°
2026-05-01 15:23 42.18015 171.29062 34903 ft 560 kts 69°
2026-05-01 15:23 42.19392 171.39401 34899 ft 560 kts 69°
2026-05-01 15:24 42.20758 171.49738 34899 ft 560 kts 70°
2026-05-01 15:24 42.22114 171.60081 34897 ft 560 kts 70°
2026-05-01 15:25 42.23463 171.70428 34898 ft 560 kts 70°
2026-05-01 15:25 42.24800 171.80766 34897 ft 560 kts 70°
2026-05-01 15:26 42.26130 171.91120 34897 ft 560 kts 70°
2026-05-01 15:26 42.27450 172.01479 34897 ft 560 kts 70°
2026-05-01 15:27 42.28760 172.11838 34896 ft 559 kts 70°
2026-05-01 15:28 42.30707 172.27374 34895 ft 559 kts 71°
2026-05-01 15:28 42.31993 172.37739 34895 ft 559 kts 71°
2026-05-01 15:29 42.33901 172.53264 34894 ft 558 kts 71°
2026-05-01 15:30 42.36200 172.72209 34893 ft 557 kts 71°
2026-05-01 15:31 42.39889 173.03197 34892 ft 555 kts 72°
2026-05-01 15:32 42.42286 173.23741 34891 ft 554 kts 73°
2026-05-01 15:34 42.45826 173.54705 34890 ft 555 kts 73°